Weather History for KPNE - February, 2013

Change the Weather History Date:

Sunday, February 24, 2013

  Actual Average Record
Temperature  
Mean Temperature 39 °F -  
Max Temperature 46 °F 43 °F 51 °F (2002)
Min Temperature 32 °F 27 °F 5 °F (2015)
Degree Days  
Heating Degree Days 26    
Moisture  
Dew Point 30 °F    
Average Humidity 73    
Maximum Humidity 96    
Minimum Humidity 51    
Precipitation  
Precipitation 0.00 in - - ()
Sea Level Pressure  
Sea Level Pressure 29.87 in    
Wind  
Wind Speed 9 mph (NW)    
Max Wind Speed 21 mph    
Max Gust Speed 28 mph    
Visibility 10 miles    
Events      
Averages and records for this station are not official NWS values.
T = Trace of Precipitation, MM = Missing Value Source: NWS Daily Summary

Daily Weather History Graph

Daily Weather History Graph

Search for Another Location

Airport or City:

Trip Planner

Search our weather history database for the weather conditions in past years. The results will help you decide how hot, cold, wet, or windy it might be!

Date:

Astronomy

Feb. 24, 2013 Rise Set
Actual Time 6:40 AM EST 5:46 PM EST
Civil Twilight 6:13 AM EST 6:13 PM EST
Nautical Twilight 5:41 AM EST 6:45 PM EST
Astronomical Twilight 5:10 AM EST 7:16 PM EST
Moon 4:55 PM EST (2/24) 5:36 AM EST (2/24)
Length of Visible Light 12h 00m
Length of Day
11h 06m
Waxing Gibbous, 99% of the Moon is Illuminated
Feb 24
Waxing Gibbous
Feb 25
Full
Mar 4
Last Quarter
Mar 11
New
Mar 19
First Quarter

Hourly Weather History & Observations

Time (EST) Temp. Windchill Dew Point Humidity Pressure Visibility Wind Dir Wind Speed Gust Speed Precip Events Conditions
12:54 AM 37.9 °F 32.1 °F 36.0 °F 93% 29.83 in 4.0 mi North 8.1 mph - N/A   Overcast
1:54 AM 37.0 °F 31.0 °F 36.0 °F 96% 29.83 in 6.0 mi North 8.1 mph - N/A   Overcast
2:54 AM 37.9 °F 33.5 °F 36.0 °F 93% 29.83 in 10.0 mi North 5.8 mph - N/A   Overcast
3:03 AM 37.4 °F 32.1 °F 35.6 °F 93% 29.82 in 10.0 mi NNE 6.9 mph - N/A   Overcast
3:54 AM 37.0 °F 31.0 °F 36.0 °F 96% 29.80 in 10.0 mi NNW 8.1 mph - N/A   Overcast
4:54 AM 37.9 °F 32.1 °F 36.0 °F 93% 29.81 in 10.0 mi NNW 8.1 mph - N/A   Overcast
5:35 AM 37.4 °F 32.1 °F 35.6 °F 93% 29.81 in 10.0 mi NNW 6.9 mph - N/A   Overcast
5:54 AM 37.9 °F 30.9 °F 35.1 °F 89% 29.81 in 10.0 mi North 10.4 mph - N/A   Overcast
6:39 AM 37.4 °F 30.8 °F 35.6 °F 93% 29.81 in 10.0 mi NNW 9.2 mph - N/A   Scattered Clouds
6:54 AM 36.0 °F 30.3 °F 34.0 °F 93% 29.80 in 10.0 mi North 6.9 mph - N/A   Partly Cloudy
7:54 AM 39.0 °F 34.0 °F 36.0 °F 89% 29.82 in 10.0 mi NNW 6.9 mph - N/A   Mostly Cloudy
8:44 AM 39.2 °F 33.6 °F 37.4 °F 93% 29.83 in 10.0 mi WNW 8.1 mph - N/A   Mostly Cloudy
8:54 AM 42.1 °F 36.6 °F 37.0 °F 82% 29.83 in 10.0 mi WNW 9.2 mph - N/A   Mostly Cloudy
9:49 AM 42.8 °F 36.6 °F 37.4 °F 81% 29.82 in 10.0 mi NNW 11.5 mph 23.0 mph N/A   Scattered Clouds
9:54 AM 44.1 °F 39.0 °F 37.0 °F 76% 29.83 in 10.0 mi NW 9.2 mph - N/A   Scattered Clouds
10:54 AM 46.9 °F - 32.0 °F 56% 29.84 in 10.0 mi NW 15.0 mph 25.3 mph N/A   Mostly Cloudy
11:54 AM 46.0 °F 40.6 °F 30.9 °F 56% 29.83 in 10.0 mi NW 11.5 mph 19.6 mph N/A   Mostly Cloudy
12:54 PM 46.0 °F 40.6 °F 30.0 °F 54% 29.83 in 10.0 mi NW 11.5 mph - N/A   Overcast
1:54 PM 45.0 °F 36.9 °F 28.0 °F 52% 29.82 in 10.0 mi NW 20.7 mph 26.5 mph N/A   Overcast
2:54 PM 43.0 °F 35.1 °F 26.1 °F 51% 29.84 in 10.0 mi NW 17.3 mph 25.3 mph N/A   Overcast
3:54 PM 41.0 °F 32.5 °F 24.1 °F 51% 29.87 in 10.0 mi WNW 17.3 mph 25.3 mph N/A   Mostly Cloudy
4:54 PM 39.0 °F 31.4 °F 23.0 °F 53% 29.90 in 10.0 mi NW 12.7 mph 25.3 mph N/A   Overcast
5:54 PM 37.9 °F 28.5 °F 23.0 °F 55% 29.94 in 10.0 mi NW 17.3 mph 27.6 mph N/A   Overcast
6:54 PM 36.0 °F 28.0 °F 21.0 °F 55% 29.97 in 10.0 mi WNW 11.5 mph 20.7 mph N/A   Clear
7:54 PM 35.1 °F 27.4 °F 19.9 °F 54% 30.00 in 10.0 mi WNW 10.4 mph - N/A   Clear
8:54 PM 34.0 °F 26.6 °F 19.9 °F 56% 30.02 in 10.0 mi WNW 9.2 mph - N/A   Partly Cloudy
9:54 PM 32.0 °F 26.4 °F 19.0 °F 59% 30.04 in 10.0 mi WNW 5.8 mph - N/A   Clear
10:54 PM 33.1 °F 26.1 °F 19.0 °F 56% 30.03 in 10.0 mi NW 8.1 mph - N/A   Clear
11:54 PM 32.0 °F 25.6 °F 18.0 °F 56% 30.05 in 10.0 mi NW 6.9 mph - N/A   Clear